Weather History for Muncie, IN

Change the Weather History Date:

Saturday, October 8, 2011

  Actual Average Record
Temperature  
Mean Temperature 66 °F 56 °F  
Max Temperature 82 °F 67 °F 90 °F (2007)
Min Temperature 49 °F 45 °F 28 °F (2012)
Degree Days  
Heating Degree Days 0 10  
Month to date heating degree days 57 68  
Since 1 July heating degree days 209 169  
Cooling Degree Days 1 1  
Month to date cooling degree days 2 8  
Year to date cooling degree days 1068 947  
Growing Degree Days 16 (Base 50)    
Moisture  
Dew Point 52 °F    
Average Humidity 62    
Maximum Humidity 89    
Minimum Humidity 34    
Precipitation  
Precipitation 0.00 in 0.10 in 1.08 in (1984)
Month to date precipitation 0.00 0.82  
Year to date precipitation 34.29 31.69  
Sea Level Pressure  
Sea Level Pressure 30.34 in    
Wind  
Wind Speed 3 mph (SSE)    
Max Wind Speed 9 mph    
Max Gust Speed 14 mph    
Visibility 10 miles    
Events      
T = Trace of Precipitation, MM = Missing Value Source: NWS Daily Summary

Daily Weather History Graph

Daily Weather History Graph

Search for Another Location

Airport:

Trip Planner

Search our weather history database for the weather conditions in past years. The results will help you decide how hot, cold, wet, or windy it might be!

Date:

Astronomy

Oct. 08, 2011 Rise Set
Actual Time 7:44 AM EDT 7:12 PM EDT
Civil Twilight 7:17 AM EDT 7:40 PM EDT
Nautical Twilight 6:46 AM EDT 8:11 PM EDT
Astronomical Twilight 6:14 AM EDT 8:43 PM EDT
Moon 5:23 PM EDT (10/8) 4:31 AM EDT (10/8)
Length of Visible Light 12h 22m
Length of Day
11h 28m
Waxing Gibbous, 90% of the Moon is Illuminated
Oct 8
Waxing Gibbous
Oct 11
Full
Oct 19
Last Quarter
Oct 26
New
Nov 2
First Quarter

Hourly Weather History & Observations

Time (EDT) Temp. Dew Point Humidity Pressure Visibility Wind Dir Wind Speed Gust Speed Precip Events Conditions
12:53 AM 60.1 °F 48.9 °F 67% 30.32 in 10.0 mi SE 3.5 mph - N/A   Clear
1:53 AM 60.1 °F 50.0 °F 69% 30.32 in 10.0 mi SSE 5.8 mph - N/A   Clear
2:53 AM 60.1 °F 50.0 °F 69% 30.31 in 10.0 mi SSE 5.8 mph - N/A   Clear
3:53 AM 59.0 °F 50.0 °F 72% 30.31 in 10.0 mi SSE 4.6 mph - N/A   Clear
4:53 AM 55.0 °F 48.9 °F 80% 30.32 in 10.0 mi SSE 3.5 mph - N/A   Clear
5:53 AM 57.0 °F 48.9 °F 74% 30.33 in 10.0 mi SSE 4.6 mph - N/A   Clear
6:53 AM 52.0 °F 48.0 °F 86% 30.35 in 7.0 mi Calm Calm - N/A   Clear
7:53 AM 51.1 °F 48.0 °F 89% 30.37 in 4.0 mi Calm Calm - N/A   Clear
9:53 AM 66.0 °F 53.1 °F 63% 30.39 in 10.0 mi South 6.9 mph - N/A   Clear
10:53 AM 72.0 °F 54.0 °F 53% 30.39 in 10.0 mi SSW 4.6 mph - N/A   Clear
11:53 AM 75.9 °F 54.0 °F 46% 30.38 in 10.0 mi SSW 4.6 mph - N/A   Clear
12:53 PM 78.1 °F 53.1 °F 42% 30.38 in 10.0 mi Variable 4.6 mph - N/A   Clear
1:53 PM 79.0 °F 52.0 °F 39% 30.35 in 10.0 mi SSW 5.8 mph - N/A   Clear
2:53 PM 81.0 °F 52.0 °F 36% 30.33 in 10.0 mi Calm Calm - N/A   Clear
3:53 PM 81.0 °F 52.0 °F 36% 30.31 in 10.0 mi Variable 3.5 mph - N/A   Clear
4:53 PM 82.0 °F 52.0 °F 35% 30.31 in 10.0 mi SSE 6.9 mph - N/A   Clear
5:53 PM 80.1 °F 52.0 °F 38% 30.31 in 10.0 mi South 5.8 mph - N/A   Clear
6:53 PM 77.0 °F 52.0 °F 42% 30.31 in 10.0 mi Calm Calm - N/A   Clear
7:53 PM 70.0 °F 53.1 °F 55% 30.32 in 10.0 mi SSE 3.5 mph - N/A   Clear
8:53 PM 64.0 °F 54.0 °F 70% 30.33 in 10.0 mi Calm Calm - N/A   Clear
9:53 PM 68.0 °F 53.1 °F 59% 30.33 in 10.0 mi SSE 5.8 mph - N/A   Clear
10:53 PM 64.9 °F 53.1 °F 65% 30.33 in 10.0 mi Calm Calm - N/A   Clear
11:53 PM 59.0 °F 53.1 °F 81% 30.33 in 10.0 mi Calm Calm - N/A   Clear